User: anonymous   Login
Location: Chanteloup
(48.8560°N, 2.7390°E)
Time: 04:16:17
(UTC+00:00)
Language:

Cosmos 2322 Rocket - Orbit

View from above orbital plane
View from above orbital plane
View from above satellite
View from above satellite

Ground track
Ground track

The orbit data is extracted from the following two-line orbital elements,

1 23705U 95058B   22017.56967953  .00000094  00000-0  72761-4 0  9996
2 23705  71.0233 113.8764 0014891 265.3759  94.5663 14.15164948353901
Epoch (UTC): 17 January 2022 13:40:20
Eccentricity: 0.0014891
inclination: 71.0233°
perigee height: 831 km
apogee height: 852 km
right ascension of ascending node: 113.8764°
argument of perigee: 265.3759°
revolutions per day: 14.15164948
mean anomaly at epoch: 94.5663°
orbit number at epoch: 35390

The dashed part of the orbit path shows where the satellite is in the earth's shadow,  

DLR